Date,TemperatureHighF,TemperatureAvgF,TemperatureLowF,DewpointHighF,DewpointAvgF,DewpointLowF,HumidityHigh,HumidityAvg,HumidityLow,PressureMaxIn,PressureMinIn,WindSpeedMaxMPH,WindSpeedAvgMPH,GustSpeedMaxMPH,PrecipitationSumIn
2013-2-1,30.3,25.7,19.5,15.7,9.8,4.8,60,51,42,29.96,29.52,6,3,17,0.00
2013-2-2,28.5,22.2,14.7,12.4,7.6,2.9,63,53,44,30.15,29.90,4,1,9,0.00
2013-2-3,26.4,23.1,17.7,19.6,16.9,12.5,84,77,64,29.92,29.64,3,0,5,0.00
2013-2-4,26.9,21.2,15.9,17.3,10.8,7.3,83,64,47,29.86,29.56,6,2,15,0.00
2013-2-5,28.9,23.2,17.2,18.9,13.5,8.6,81,66,54,29.94,29.76,3,1,5,0.00
2013-2-6,34.7,27.2,21.7,23.8,17.3,5.8,86,67,44,30.16,29.76,4,1,8,0.00
2013-2-7,29.3,22.6,14.5,8.8,6.2,3.8,69,50,38,30.50,30.13,3,1,7,0.00
2013-2-8,24.2,21.4,16.7,19.2,14.8,8.4,89,76,53,30.31,29.57,6,2,14,0.00
2013-2-9,22.4,18.0,13.4,19.9,15.2,10.3,90,89,86,30.09,29.49,7,6,18,0.04
2013-2-10,35.7,19.9,7.3,14.4,8.6,3.5,87,64,37,30.45,30.06,3,1,6,0.00
2013-2-11,39.2,29.8,17.4,37.0,24.3,7.3,92,80,62,30.22,29.60,3,0,6,0.20
2013-2-12,40.4,36.4,32.9,36.8,27.9,23.8,92,71,60,29.83,29.55,7,2,15,0.00
2013-2-13,39.3,32.6,27.1,26.0,22.9,19.9,75,67,55,29.88,29.64,4,1,7,0.00
2013-2-14,41.5,32.6,24.8,24.1,21.8,18.3,77,65,48,30.02,29.64,3,0,7,0.00
2013-2-15,48.7,36.1,26.0,34.2,28.0,20.2,88,73,54,30.17,29.66,3,1,7,0.00
2013-2-16,36.8,32.7,26.7,29.8,26.1,17.3,88,77,60,30.30,29.59,4,1,9,0.08
2013-2-17,26.7,20.1,14.1,18.2,8.9,1.0,84,62,47,29.69,29.40,9,6,22,0.00
2013-2-18,28.9,19.1,11.4,6.5,2.7,0.0,60,49,35,30.12,29.62,7,3,17,0.00
2013-2-19,44.4,31.8,18.1,35.3,22.1,3.9,90,68,50,30.04,29.57,3,1,7,0.31
2013-2-20,36.8,29.3,23.9,34.2,18.8,10.6,90,65,47,29.73,29.51,5,3,15,0.04
2013-2-21,30.7,25.2,21.7,15.2,13.0,10.4,70,60,49,30.10,29.65,8,4,18,0.00
2013-2-22,37.9,29.2,18.8,22.2,18.8,13.1,80,65,50,30.39,30.08,4,1,8,0.00
2013-2-23,35.7,32.2,28.2,29.3,26.3,20.6,89,79,73,30.22,29.77,3,1,5,0.00
2013-2-24,32.9,32.1,30.9,30.8,29.9,28.8,92,91,89,29.77,29.61,2,0,6,0.04
2013-2-25,36.8,32.0,26.0,33.0,29.2,23.2,92,90,84,30.15,29.77,2,0,4,0.00
2013-2-26,39.9,34.5,31.2,32.8,29.4,27.0,92,82,69,30.28,30.06,3,1,6,0.94
2013-2-27,39.5,35.2,32.3,37.7,32.8,27.6,93,91,82,30.06,29.55,6,2,14,1.79
2013-2-28,33.9,32.3,30.5,31.4,30.3,28.2,93,92,90,29.58,29.50,2,0,5,0.00